Weather Roundup
Issued by NWS Chicago, IL

Home | Current Version | Previous Version | Graphics & Text | Print | Product List | Glossary On
Versions: 1 2 3 4 5 6 7 8 9 10 11 12 13 14 15 16 17 18 19 20 21 22 23 24 25 26 27 28 29 30 31 32 33 34 35 36 37 38 39 40 41 42 43 44 45 46 47 48 49 50
000
NZUS59 KLOT 060312
HRRLOT

CHICAGO AREA WEATHER ROUNDUP
NATIONAL WEATHER SERVICE CHICAGO/ROMEOVILLE IL
1000 PM CDT SUN JUL 05 2015

NOTE: "FAIR" INDICATES FEW OR NO CLOUDS BELOW 12,000 FEET WITH NO
SIGNIFICANT WEATHER AND/OR OBSTRUCTIONS TO VISIBILITY.

* THESE STATIONS ARE NOT UNDER NWS QUALITY CONTROL. THEY ALSO MAY NOT
  REPORT WEATHER SUCH AS PRECIPITATION OR FOG.

ILZ005-006-012>014-019>023-060400-
NORTHEAST ILLINOIS

CITY           SKY/WX    TMP DP  RH WIND       PRES   REMARKS
OHARE          CLEAR     73  61  65 S7        30.02R
MIDWAY         CLEAR     79  61  53 S6        30.02R HX  80
AURORA         CLEAR     70  62  76 SE7       30.02S
LANSING*       CLEAR     71  60  68 SE3       30.03S
JOLIET*        CLEAR     68  65  90 CALM      30.03R
WAUKEGAN       CLEAR     69  60  73 SE6       30.01R
DUPAGE AIRPORT CLEAR     69  62  78 SE5       30.02R
WHEELING       CLEAR     72  60  66 SE3       30.03R
KANKAKEE*      CLEAR     71  64  78 CALM      30.04S
MORRIS*        CLEAR     71  64  78 SE5       30.01R
LEWIS AIRPORT* CLEAR     70  62  76 CALM      30.03R
NORTHERLY IS     N/A     68  64  87 S1          N/A
$$

WIZ051-052-058>065-066-070>072-060400-
SOUTHEAST WISCONSIN

CITY           SKY/WX    TMP DP  RH WIND       PRES   REMARKS
MILWAUKEE      PTCLDY    71  59  65 S6        30.01R
KENOSHA*       CLEAR     70  60  70 S7        30.01S
RACINE*        CLEAR     71  59  65 S10       30.03R
BURLINGTON     CLEAR     62  60  92 CALM      30.01S
WAUKESHA       CLEAR     68  59  73 S6        30.02R
WEST BEND      CLEAR     68  59  73 CALM      30.01R
$$

INZ001>003-010>013-019-020-060400-
NORTHWEST INDIANA

CITY           SKY/WX    TMP DP  RH WIND       PRES   REMARKS
GARY*          PTCLDY   N/A N/A N/A SE5       30.04R
MICHIGAN CITY* NOT AVBL
RENSSELAER*    NOT AVBL
VALPARAISO     CLEAR     73  61  65 SE5       30.05S
$$

LMZ740>746-060400-
SOUTHERN LAKE MICHIGAN

STATION/POSITION TIME  SKY/WX   TEMP WIND        PRES    VSBY
                                AIR  DIR/SP/G
                 (UTC)          (F)  (DEG/KT/KT) (MB)    (MI)
HARRISON CRIB    0200            69  170/  6/ 10   N/A
BURNHAM HARBOR   0300            68  140/  2/  3   N/A
CALUMET HARBOR   0200            72  110/  4/  6   N/A
BURNS HARBOR     0200            72  190/  4/  6 1017.6S
MICHIGAN CITY    0200            76  130/  4/  6   N/A
$$

ABBREVIATIONS USED IN REMARKS
   TC - TEMPERATURE IN CELSIUS
  WCI - WIND CHILL INDEX
   HX - HEAT INDEX
  VSB - VISIBILITY
$$



USA.gov is the U.S. government's official web portal to all federal, state and local government web resources and services.